When you browse on this site, cookies collect data to enhance your experience and personalize the content and advertising you see.
Visit our Privacy Policy to learn more. By continuing to use the site, you agree to this use of cookies and data.
  • In Romania
  • List of Countries
  • For 7 days
  • Water Temperature
  • Satellite Maps
  • Weather Map
  • Weather Widgets
  • user-avatar
    Login

    Hourly Weather Balchik

    Today, 26 June, Wednesday

    Time Temperature Precipitation Wind Pressure Humidity
    00:00 +21°C° 0 mm 4 mps 742 mmHg 83%
    01:00 +21°C° 0 mm 5 mps 742 mmHg 83%
    02:00 +21°C° 0 mm 5 mps 742 mmHg 84%
    03:00 +20°C° 0 mm 5 mps 742 mmHg 86%
    04:00 +20°C° 0 mm 5 mps 742 mmHg 87%
    05:00 +20°C° 0 mm 5 mps 742 mmHg 89%
    06:00 +22°C° 0.1 mm 5 mps 743 mmHg 84%
    07:00 +23°C° 0.1 mm 6 mps 743 mmHg 80%
    08:00 +26°C° 0 mm 6 mps 744 mmHg 76%
    09:00 +27°C° 0.5 mm 6 mps 744 mmHg 68%
    10:00 +28°C° 0.5 mm 7 mps 744 mmHg 61%
    11:00 +31°C° 0.5 mm 8 mps 744 mmHg 54%
    12:00 +31°C° 0.3 mm 8 mps 744 mmHg 53%
    13:00 +31°C° 0.3 mm 8 mps 744 mmHg 52%
    14:00 +32°C° 0 mm 7 mps 744 mmHg 49%
    15:00 +30°C° 0.1 mm 6 mps 744 mmHg 51%
    16:00 +30°C° 0.1 mm 6 mps 744 mmHg 53%
    17:00 +29°C° 0.1 mm 6 mps 743 mmHg 55%
    18:00 +27°C° 0 mm 4 mps 743 mmHg 64%
    19:00 +25°C° 0 mm 3 mps 743 mmHg 73%
    20:00 +24°C° 0 mm 2 mps 743 mmHg 82%
    21:00 +23°C° 0 mm 2 mps 743 mmHg 84%
    22:00 +22°C° 0 mm 1 mps 743 mmHg 87%
    23:00 +19°C° 0 mm 0 mps 742 mmHg 90%

    Tomorrow, 27 June, Thursday

    Time Temperature Precipitation Wind Pressure Humidity
    00:00 +21°C° 0 mm 1 mps 742 mmHg 90%
    01:00 +20°C° 0 mm 2 mps 742 mmHg 89%
    02:00 +20°C° 0 mm 2 mps 742 mmHg 89%
    03:00 +19°C° 0 mm 2 mps 742 mmHg 89%
    04:00 +19°C° 0 mm 2 mps 741 mmHg 88%
    05:00 +19°C° 0 mm 2 mps 741 mmHg 88%
    06:00 +21°C° 0 mm 2 mps 741 mmHg 81%
    07:00 +24°C° 0 mm 3 mps 741 mmHg 75%
    08:00 +25°C° 0 mm 3 mps 741 mmHg 68%
    09:00 +27°C° 0 mm 3 mps 741 mmHg 60%
    10:00 +28°C° 0 mm 3 mps 741 mmHg 52%
    11:00 +30°C° 0 mm 3 mps 740 mmHg 44%
    12:00 +30°C° 0 mm 3 mps 740 mmHg 42%
    13:00 +31°C° 0 mm 3 mps 739 mmHg 40%
    14:00 +33°C° 0 mm 3 mps 739 mmHg 38%
    15:00 +31°C° 0 mm 3 mps 738 mmHg 40%
    16:00 +31°C° 0 mm 3 mps 738 mmHg 42%
    17:00 +31°C° 0 mm 3 mps 737 mmHg 44%
    18:00 +29°C° 0 mm 3 mps 737 mmHg 51%
    19:00 +27°C° 0 mm 2 mps 736 mmHg 59%
    20:00 +25°C° 0 mm 2 mps 736 mmHg 67%
    21:00 +24°C° 0 mm 2 mps 736 mmHg 67%
    22:00 +24°C° 0 mm 2 mps 736 mmHg 67%
    23:00 +22°C° 0 mm 3 mps 736 mmHg 67%

    Day after tomorrow, 28 June, Friday

    Time Temperature Precipitation Wind Pressure Humidity
    00:00 +22°C° 0 mm 3 mps 736 mmHg 71%
    01:00 +21°C° 0 mm 3 mps 735 mmHg 75%
    02:00 +21°C° 0 mm 3 mps 735 mmHg 78%
    03:00 +20°C° 0.2 mm 3 mps 735 mmHg 83%
    04:00 +20°C° 0.2 mm 3 mps 735 mmHg 88%
    05:00 +19°C° 0.2 mm 3 mps 735 mmHg 92%
    06:00 +20°C° 0.1 mm 4 mps 735 mmHg 85%
    07:00 +22°C° 0.1 mm 5 mps 735 mmHg 77%
    08:00 +23°C° 0.1 mm 5 mps 735 mmHg 69%
    09:00 +23°C° 0.1 mm 5 mps 736 mmHg 64%
    10:00 +24°C° 0.1 mm 6 mps 736 mmHg 59%
    11:00 +24°C° 0.1 mm 6 mps 736 mmHg 54%
    12:00 +25°C° 0 mm 5 mps 736 mmHg 57%
    13:00 +23°C° 0 mm 5 mps 736 mmHg 59%
    14:00 +22°C° 0 mm 5 mps 736 mmHg 62%
    15:00 +23°C° 0 mm 4 mps 736 mmHg 61%
    16:00 +24°C° 0 mm 3 mps 736 mmHg 61%
    17:00 +24°C° 0 mm 3 mps 736 mmHg 60%
    18:00 +22°C° 0 mm 3 mps 737 mmHg 60%
    19:00 +21°C° 0 mm 4 mps 737 mmHg 59%
    20:00 +20°C° 0 mm 4 mps 737 mmHg 59%
    21:00 +20°C° 0 mm 5 mps 738 mmHg 57%
    22:00 +19°C° 0 mm 5 mps 738 mmHg 55%
    23:00 +19°C° 0 mm 6 mps 739 mmHg 53%

    29 June, Saturday

    Time Temperature Precipitation Wind Pressure Humidity
    00:00 +17°C° 0 mm 5 mps 739 mmHg 54%
    01:00 +17°C° 0 mm 5 mps 739 mmHg 56%
    02:00 +17°C° 0 mm 4 mps 739 mmHg 58%
    03:00 +17°C° 0 mm 4 mps 739 mmHg 61%
    04:00 +15°C° 0 mm 4 mps 739 mmHg 64%
    05:00 +15°C° 0 mm 4 mps 739 mmHg 68%
    06:00 +16°C° 0 mm 5 mps 739 mmHg 63%
    07:00 +17°C° 0 mm 5 mps 740 mmHg 58%
    08:00 +19°C° 0 mm 6 mps 740 mmHg 54%
    09:00 +20°C° 0 mm 6 mps 740 mmHg 50%
    10:00 +21°C° 0 mm 6 mps 740 mmHg 46%
    11:00 +23°C° 0 mm 7 mps 740 mmHg 43%
    12:00 +23°C° 0 mm 6 mps 740 mmHg 42%
    13:00 +24°C° 0 mm 6 mps 740 mmHg 42%
    14:00 +24°C° 0 mm 6 mps 740 mmHg 42%
    15:00 +23°C° 0 mm 5 mps 740 mmHg 44%
    16:00 +23°C° 0 mm 5 mps 740 mmHg 46%
    17:00 +22°C° 0 mm 4 mps 739 mmHg 49%
    18:00 +21°C° 0 mm 4 mps 740 mmHg 56%
    19:00 +20°C° 0 mm 3 mps 740 mmHg 63%
    20:00 +18°C° 0 mm 3 mps 740 mmHg 70%
    21:00 +17°C° 0 mm 3 mps 740 mmHg 74%
    22:00 +16°C° 0 mm 3 mps 740 mmHg 77%
    23:00 +14°C° 0 mm 4 mps 741 mmHg 80%

    30 June, Sunday

    Time Temperature Precipitation Wind Pressure Humidity
    00:00 +14°C° 0 mm 4 mps 741 mmHg 78%
    01:00 +14°C° 0 mm 3 mps 741 mmHg 77%
    02:00 +14°C° 0 mm 3 mps 741 mmHg 75%
    03:00 +14°C° 0 mm 3 mps 741 mmHg 77%
    04:00 +13°C° 0 mm 3 mps 741 mmHg 80%
    05:00 +12°C° 0 mm 3 mps 740 mmHg 83%
    06:00 +14°C° 0 mm 4 mps 741 mmHg 74%
    07:00 +17°C° 0 mm 5 mps 741 mmHg 65%
    08:00 +20°C° 0 mm 6 mps 741 mmHg 56%
    09:00 +21°C° 0 mm 6 mps 742 mmHg 52%
    10:00 +23°C° 0 mm 6 mps 742 mmHg 49%
    11:00 +24°C° 0 mm 6 mps 742 mmHg 46%
    12:00 +24°C° 0 mm 6 mps 742 mmHg 46%
    13:00 +24°C° 0 mm 6 mps 742 mmHg 46%
    14:00 +26°C° 0 mm 6 mps 741 mmHg 46%
    15:00 +26°C° 0 mm 6 mps 741 mmHg 45%
    16:00 +26°C° 0 mm 5 mps 741 mmHg 45%
    17:00 +26°C° 0 mm 5 mps 741 mmHg 45%
    18:00 +25°C° 0 mm 4 mps 741 mmHg 50%
    19:00 +22°C° 0 mm 4 mps 741 mmHg 55%
    20:00 +21°C° 0 mm 3 mps 741 mmHg 60%
    21:00 +21°C° 0 mm 3 mps 741 mmHg 59%
    22:00 +21°C° 0 mm 3 mps 741 mmHg 59%
    23:00 +21°C° 0 mm 3 mps 742 mmHg 59%

    1 July, Monday

    Time Temperature Precipitation Wind Pressure Humidity
    00:00 +21°C° 0 mm 3 mps 742 mmHg 60%
    01:00 +20°C° 0 mm 3 mps 742 mmHg 62%
    02:00 +20°C° 0 mm 2 mps 742 mmHg 64%
    03:00 +19°C° 0 mm 2 mps 742 mmHg 68%
    04:00 +18°C° 0 mm 2 mps 742 mmHg 73%
    05:00 +17°C° 0 mm 2 mps 741 mmHg 78%
    06:00 +19°C° 0 mm 3 mps 742 mmHg 71%
    07:00 +21°C° 0 mm 3 mps 742 mmHg 64%
    08:00 +23°C° 0 mm 4 mps 743 mmHg 57%
    09:00 +25°C° 0 mm 4 mps 743 mmHg 52%
    10:00 +27°C° 0 mm 4 mps 743 mmHg 47%
    11:00 +28°C° 0 mm 3 mps 743 mmHg 41%
    12:00 +29°C° 0 mm 3 mps 743 mmHg 40%
    13:00 +29°C° 0 mm 3 mps 743 mmHg 39%
    14:00 +30°C° 0 mm 2 mps 742 mmHg 38%
    15:00 +29°C° 0 mm 2 mps 742 mmHg 41%
    16:00 +29°C° 0 mm 3 mps 742 mmHg 44%
    17:00 +28°C° 0 mm 3 mps 741 mmHg 47%
    18:00 +26°C° 0 mm 3 mps 741 mmHg 55%
    19:00 +24°C° 0 mm 3 mps 741 mmHg 63%
    20:00 +21°C° 0 mm 3 mps 741 mmHg 72%
    21:00 +20°C° 0 mm 3 mps 741 mmHg 74%
    22:00 +20°C° 0 mm 3 mps 741 mmHg 76%
    23:00 +19°C° 0 mm 3 mps 741 mmHg 78%
    Show more